Nantucket, MA

2:39 AM EST on February 18, 2018 (GMT -0500)
Nantucket Memorial

Weather History for KACK - January, 2012

Change the Weather History Date:

Friday, January 27, 2012

  Actual Average Record
Temperature  
Mean Temperature 46 °F -  
Max Temperature 51 °F 37 °F 53 °F (1967)
Min Temperature 42 °F 27 °F 9 °F (1971)
Degree Days  
Heating Degree Days 18    
Moisture  
Dew Point 47 °F    
Average Humidity 96    
Maximum Humidity 100    
Minimum Humidity 73    
Precipitation  
Precipitation 0.49 in - - ()
Sea Level Pressure  
Sea Level Pressure 29.59 in    
Wind  
Wind Speed 16 mph (South)    
Max Wind Speed 23 mph    
Max Gust Speed 36 mph    
Visibility 4 miles    
Events Fog , Rain    
Averages and records for this station are not official NWS values.
T = Trace of Precipitation, MM = Missing Value Source: NWS Daily Summary

Daily Weather History Graph

Daily Weather History Graph

Search for Another Location

Airport or City:

Trip Planner

Search our weather history database for the weather conditions in past years. The results will help you decide how hot, cold, wet, or windy it might be!

Date:

Astronomy

Jan. 27, 2012 Rise Set
Actual Time 6:56 AM EST 4:49 PM EST
Civil Twilight 6:26 AM EST 5:19 PM EST
Nautical Twilight 5:53 AM EST 5:52 PM EST
Astronomical Twilight 5:20 AM EST 6:25 PM EST
Moon 8:46 AM EST (1/27) 9:41 PM EST (1/27)
Length of Visible Light 10h 52m
Length of Day
9h 53m
Waxing Crescent, 19% of the Moon is Illuminated
Jan 27
Waxing Crescent
Jan 30
First Quarter
Feb 7
Full
Feb 14
Last Quarter
Feb 21
New

Hourly Weather History & Observations

Time (EST) Temp. Windchill Dew Point Humidity Pressure Visibility Wind Dir Wind Speed Gust Speed Precip Events Conditions
12:16 AM 42.8 °F 36.2 °F 39.2 °F 87% 29.96 in 8.0 mi East 12.7 mph - 0.00 in Rain Light Rain
12:50 AM 42.8 °F 36.2 °F 41.0 °F 93% 29.93 in 9.0 mi East 12.7 mph - 0.00 in   Overcast
12:53 AM 43.0 °F 35.7 °F 41.0 °F 93% 29.93 in 9.0 mi East 15.0 mph - 0.00 in   Overcast
1:02 AM 42.8 °F 35.4 °F 41.0 °F 93% 29.92 in 10.0 mi East 15.0 mph - N/A   Overcast
1:53 AM 44.1 °F 36.2 °F 42.1 °F 93% 29.90 in 9.0 mi East 18.4 mph - 0.00 in   Overcast
2:53 AM 44.1 °F 35.9 °F 43.0 °F 96% 29.86 in 7.0 mi ESE 19.6 mph 25.3 mph 0.00 in Rain Light Rain
3:18 AM 44.6 °F 36.6 °F 42.8 °F 93% 29.83 in 8.0 mi East 19.6 mph - 0.00 in   Overcast
3:25 AM 44.6 °F 36.9 °F 42.8 °F 93% 29.82 in 8.0 mi ESE 18.4 mph 25.3 mph 0.00 in   Overcast
3:53 AM 45.0 °F 37.1 °F 43.0 °F 93% 29.79 in 8.0 mi ESE 19.6 mph 25.3 mph 0.00 in   Overcast
4:07 AM 44.6 °F 37.2 °F 44.6 °F 100% 29.78 in 7.0 mi ESE 17.3 mph 24.2 mph N/A   Overcast
4:53 AM 46.0 °F 40.2 °F 44.1 °F 93% 29.76 in 4.0 mi SE 12.7 mph - N/A   Overcast
5:04 AM 46.4 °F 39.8 °F 44.6 °F 93% 29.75 in 2.0 mi ESE 16.1 mph - N/A   Overcast
5:11 AM 46.4 °F 40.4 °F 44.6 °F 93% 29.75 in 1.5 mi ESE 13.8 mph - N/A   Overcast
5:27 AM 46.4 °F 40.4 °F 46.4 °F 100% 29.75 in 0.8 mi ESE 13.8 mph - N/A   Mist
5:53 AM 46.9 °F - 46.9 °F 100% 29.74 in 0.5 mi ESE 9.2 mph - N/A Fog Fog
6:53 AM 48.9 °F - 48.9 °F 100% 29.73 in 0.2 mi SSE 11.5 mph - N/A Fog Fog
7:01 AM 48.2 °F - 48.2 °F 100% 29.72 in 0.2 mi SSE 11.5 mph - N/A Fog Fog
7:53 AM 48.2 °F - 48.2 °F 100% 29.68 in 0.2 mi South 11.5 mph - N/A Fog Fog
8:53 AM 50.0 °F - 50.0 °F 100% 29.65 in 0.2 mi South 16.1 mph - N/A Fog Fog
9:46 AM 51.8 °F - 51.8 °F 100% 29.62 in 0.5 mi South 17.3 mph - N/A Fog Fog
9:53 AM 50.0 °F - 50.0 °F 100% 29.62 in 0.2 mi South 17.3 mph - N/A Fog Fog
10:37 AM 51.8 °F - 51.8 °F 100% 29.58 in 0.5 mi South 18.4 mph 29.9 mph N/A Fog Fog
10:53 AM 51.1 °F - 50.0 °F 96% 29.57 in 0.2 mi South 19.6 mph 27.6 mph N/A Fog Fog
11:09 AM 50.0 °F - 50.0 °F 100% 29.55 in 0.2 mi South 20.7 mph - 0.01 in Fog , Rain Light Rain
11:37 AM 51.8 °F - 50.0 °F 94% 29.53 in 0.5 mi South 20.7 mph - 0.01 in Fog , Rain Light Rain
11:53 AM 50.0 °F - 50.0 °F 100% 29.52 in 0.8 mi South 19.6 mph 26.5 mph 0.01 in Rain Light Rain
12:00 PM 50.0 °F - 50.0 °F 100% 29.51 in 1.5 mi South 20.7 mph - 0.00 in Rain Light Rain
12:10 PM 51.8 °F - 50.0 °F 94% 29.50 in 0.8 mi South 19.6 mph - 0.00 in Rain Light Rain
12:41 PM 50.0 °F - 50.0 °F 100% 29.47 in 0.8 mi South 18.4 mph - 0.02 in Rain Light Rain
12:53 PM 51.1 °F - 50.0 °F 96% 29.46 in 0.5 mi South 20.7 mph - 0.03 in Fog , Rain Light Rain
1:12 PM 51.8 °F - 51.8 °F 100% 29.45 in 0.8 mi South 18.4 mph 28.8 mph 0.02 in Rain Light Rain
1:25 PM 51.8 °F - 50.0 °F 94% 29.43 in 0.2 mi South 19.6 mph - 0.05 in Fog , Rain Rain
1:32 PM 51.8 °F - 51.8 °F 100% 29.43 in 0.5 mi South 19.6 mph 26.5 mph 0.07 in Fog , Rain Rain
1:53 PM 51.1 °F - 51.1 °F 100% 29.42 in 0.8 mi South 18.4 mph 27.6 mph 0.21 in Rain Heavy Rain
2:53 PM 51.1 °F - 50.0 °F 96% 29.41 in 0.5 mi SSW 17.3 mph - 0.22 in Fog , Rain Rain
3:53 PM 50.0 °F - 50.0 °F 100% 29.37 in 0.8 mi SSW 11.5 mph - 0.02 in Rain Light Rain
4:00 PM 50.0 °F - 50.0 °F 100% 29.35 in 6.0 mi South 10.4 mph - 0.00 in Rain Light Rain
4:53 PM 48.0 °F - 48.0 °F 100% 29.31 in 6.0 mi South 13.8 mph - 0.00 in   Overcast
5:05 PM 48.2 °F - 46.4 °F 93% 29.37 in 4.0 mi SW 18.4 mph 28.8 mph N/A   Mostly Cloudy
5:16 PM 48.2 °F - 46.4 °F 93% 29.37 in 4.0 mi SW 15.0 mph 24.2 mph N/A   Mostly Cloudy
5:53 PM 48.9 °F - 48.0 °F 97% 29.37 in 4.0 mi SSW 17.3 mph - 0.00 in Rain Light Rain
6:11 PM 48.2 °F - 48.2 °F 100% 29.37 in 4.0 mi SSW 18.4 mph - 0.00 in Rain Light Rain
6:23 PM 48.2 °F - 48.2 °F 100% 29.37 in 3.0 mi SSW 19.6 mph - 0.01 in Rain Rain
6:53 PM 48.2 °F - 48.2 °F 100% 29.37 in 3.0 mi SSW 18.4 mph 27.6 mph N/A   Overcast
7:53 PM 48.9 °F - 48.0 °F 97% 29.38 in 3.0 mi WSW 19.6 mph 25.3 mph 0.00 in   Overcast
8:53 PM 48.0 °F - 46.0 °F 93% 29.43 in 7.0 mi West 16.1 mph 25.3 mph N/A   Overcast
9:02 PM 46.4 °F 39.8 °F 46.4 °F 100% 29.44 in 6.0 mi West 16.1 mph - N/A   Overcast
9:16 PM 46.4 °F 38.3 °F 44.6 °F 93% 29.46 in 10.0 mi West 23.0 mph 34.5 mph N/A   Overcast
9:53 PM 44.1 °F 35.9 °F 37.9 °F 79% 29.49 in 10.0 mi West 19.6 mph 35.7 mph N/A   Mostly Cloudy
10:53 PM 43.0 °F 34.5 °F 36.0 °F 76% 29.56 in 10.0 mi West 19.6 mph 27.6 mph N/A   Clear
11:53 PM 42.1 °F 33.1 °F 34.0 °F 73% 29.62 in 10.0 mi West 20.7 mph 33.4 mph N/A   Clear